Time,TemperatureF,DewpointF,PressureIn,WindDirection,WindDirectionDegrees,WindSpeedMPH,WindSpeedGustMPH,Humidity,HourlyPrecipIn,Conditions,Clouds,dailyrainin,SoftwareType,DateUTC
2013-07-23 00:00:00,61.7,59.0,30.00,East,90,3.0,4.0,93,0.00,,,0.00,Rainwise IP-100,2013-07-23 04:00:00,
2013-07-23 00:01:00,61.6,59.0,30.00,East,90,3.0,4.0,93,0.00,,,0.00,Rainwise IP-100,2013-07-23 04:01:00,
2013-07-23 00:06:00,61.6,59.0,29.99,East,90,2.0,3.0,93,0.00,,,0.00,Rainwise IP-100,2013-07-23 04:06:00,
2013-07-23 00:11:00,61.5,59.0,29.99,East,90,0.0,2.0,93,0.00,,,0.00,Rainwise IP-100,2013-07-23 04:11:00,
2013-07-23 00:16:00,61.5,59.0,30.00,East,90,0.0,0.0,93,0.00,,,0.00,Rainwise IP-100,2013-07-23 04:16:00,
2013-07-23 00:21:00,61.5,60.0,29.99,East,90,0.0,0.0,94,0.00,,,0.00,Rainwise IP-100,2013-07-23 04:21:00,
2013-07-23 00:26:00,61.6,60.0,29.98,East,90,0.0,1.0,94,0.00,,,0.00,Rainwise IP-100,2013-07-23 04:26:00,
2013-07-23 00:31:00,61.8,60.0,29.98,East,90,1.0,1.0,94,0.00,,,0.00,Rainwise IP-100,2013-07-23 04:31:00,
2013-07-23 00:36:00,61.9,60.0,29.98,East,90,0.0,1.0,93,0.00,,,0.00,Rainwise IP-100,2013-07-23 04:36:00,
2013-07-23 00:41:00,62.0,60.0,29.97,East,90,0.0,1.0,93,0.00,,,0.00,Rainwise IP-100,2013-07-23 04:41:00,
2013-07-23 00:46:00,62.1,60.0,29.97,SE,135,2.0,3.0,93,0.00,,,0.00,Rainwise IP-100,2013-07-23 04:46:00,
2013-07-23 00:51:00,62.2,60.0,29.97,SE,135,1.0,3.0,93,0.00,,,0.00,Rainwise IP-100,2013-07-23 04:51:00,
2013-07-23 00:56:00,62.0,60.0,29.98,SE,135,2.0,3.0,93,0.00,,,0.00,Rainwise IP-100,2013-07-23 04:56:00,
2013-07-23 01:01:00,62.0,60.0,29.97,SE,135,0.0,4.0,93,0.00,,,0.00,Rainwise IP-100,2013-07-23 05:01:00,
2013-07-23 01:06:00,62.3,60.0,29.97,SSE,157,2.0,4.0,93,0.00,,,0.00,Rainwise IP-100,2013-07-23 05:06:00,
2013-07-23 01:11:00,62.5,61.0,29.97,SSE,157,0.0,4.0,94,0.00,,,0.00,Rainwise IP-100,2013-07-23 05:11:00,
2013-07-23 01:16:00,62.6,61.0,29.97,SE,135,2.0,3.0,94,0.00,,,0.00,Rainwise IP-100,2013-07-23 05:16:00,
2013-07-23 01:21:00,62.6,61.0,29.96,SSE,157,4.0,4.0,94,0.00,,,0.00,Rainwise IP-100,2013-07-23 05:21:00,
2013-07-23 01:26:00,62.6,61.0,29.97,SSE,157,2.0,6.0,94,0.00,,,0.00,Rainwise IP-100,2013-07-23 05:26:00,
2013-07-23 01:31:00,62.5,61.0,29.96,South,180,3.0,6.0,94,0.00,,,0.00,Rainwise IP-100,2013-07-23 05:31:00,
2013-07-23 01:36:00,62.5,61.0,29.96,South,180,2.0,4.0,94,0.00,,,0.00,Rainwise IP-100,2013-07-23 05:36:00,
2013-07-23 01:41:00,62.6,61.0,29.95,SSW,202,2.0,3.0,95,0.00,,,0.00,Rainwise IP-100,2013-07-23 05:41:00,
2013-07-23 01:46:00,62.5,61.0,29.95,ESE,112,6.0,6.0,96,0.00,,,0.00,Rainwise IP-100,2013-07-23 05:46:00,
2013-07-23 01:51:00,62.1,61.0,29.95,SE,135,4.0,7.0,96,0.00,,,0.00,Rainwise IP-100,2013-07-23 05:51:00,
2013-07-23 01:56:00,61.7,60.0,29.95,SE,135,4.0,6.0,97,0.00,,,0.00,Rainwise IP-100,2013-07-23 05:56:00,
2013-07-23 02:01:00,61.9,61.0,29.95,SE,135,4.0,6.0,97,0.00,,,0.00,Rainwise IP-100,2013-07-23 06:01:00,
2013-07-23 02:06:00,62.0,61.0,29.95,SSE,157,2.0,6.0,98,0.00,,,0.00,Rainwise IP-100,2013-07-23 06:06:00,
2013-07-23 02:11:00,62.1,61.0,29.94,SE,135,3.0,7.0,98,0.00,,,0.00,Rainwise IP-100,2013-07-23 06:11:00,
2013-07-23 02:16:00,62.2,61.0,29.94,SE,135,5.0,5.0,98,0.00,,,0.00,Rainwise IP-100,2013-07-23 06:16:00,
2013-07-23 02:21:00,62.2,61.0,29.94,SSE,157,3.0,8.0,98,0.00,,,0.00,Rainwise IP-100,2013-07-23 06:21:00,
2013-07-23 02:26:00,62.2,61.0,29.93,SE,135,6.0,7.0,99,0.00,,,0.00,Rainwise IP-100,2013-07-23 06:26:00,
2013-07-23 02:31:00,62.1,61.0,29.93,SE,135,6.0,7.0,99,0.00,,,0.00,Rainwise IP-100,2013-07-23 06:31:00,
2013-07-23 02:36:00,62.0,61.0,29.93,SE,135,7.0,7.0,99,0.00,,,0.00,Rainwise IP-100,2013-07-23 06:36:00,
2013-07-23 02:41:00,62.0,61.0,29.93,SE,135,6.0,7.0,99,0.00,,,0.00,Rainwise IP-100,2013-07-23 06:41:00,
2013-07-23 02:46:00,62.0,61.0,29.93,SE,135,4.0,8.0,99,0.00,,,0.00,Rainwise IP-100,2013-07-23 06:46:00,
2013-07-23 02:51:00,61.9,61.0,29.93,SE,135,5.0,7.0,99,0.00,,,0.00,Rainwise IP-100,2013-07-23 06:51:00,
2013-07-23 02:56:00,61.9,61.0,29.93,SE,135,4.0,6.0,99,0.00,,,0.00,Rainwise IP-100,2013-07-23 06:56:00,
2013-07-23 03:01:00,61.8,61.0,29.92,SE,135,4.0,7.0,99,0.00,,,0.00,Rainwise IP-100,2013-07-23 07:01:00,
2013-07-23 03:06:00,61.8,61.0,29.92,SE,135,4.0,6.0,99,0.00,,,0.00,Rainwise IP-100,2013-07-23 07:06:00,
2013-07-23 03:11:00,61.8,61.0,29.93,SE,135,3.0,5.0,99,0.00,,,0.00,Rainwise IP-100,2013-07-23 07:11:00,
2013-07-23 03:16:00,61.9,61.0,29.92,SSE,157,3.0,5.0,99,0.00,,,0.00,Rainwise IP-100,2013-07-23 07:16:00,
2013-07-23 03:21:00,61.9,61.0,29.92,SE,135,3.0,4.0,99,0.00,,,0.00,Rainwise IP-100,2013-07-23 07:21:00,
2013-07-23 03:26:00,62.0,62.0,29.92,SE,135,3.0,4.0,100,0.00,,,0.00,Rainwise IP-100,2013-07-23 07:26:00,
2013-07-23 03:31:00,62.0,62.0,29.92,SE,135,3.0,3.0,100,0.00,,,0.00,Rainwise IP-100,2013-07-23 07:31:00,
2013-07-23 03:36:00,62.1,62.0,29.92,SSE,157,3.0,4.0,100,0.00,,,0.00,Rainwise IP-100,2013-07-23 07:36:00,
2013-07-23 03:41:00,62.3,62.0,29.92,SE,135,4.0,4.0,100,0.00,,,0.00,Rainwise IP-100,2013-07-23 07:41:00,
2013-07-23 03:46:00,62.3,62.0,29.92,SE,135,2.0,5.0,100,0.00,,,0.00,Rainwise IP-100,2013-07-23 07:46:00,
2013-07-23 03:51:00,62.4,62.0,29.92,SE,135,4.0,5.0,100,0.00,,,0.00,Rainwise IP-100,2013-07-23 07:51:00,
2013-07-23 03:56:00,62.4,62.0,29.91,SE,135,4.0,6.0,100,0.00,,,0.00,Rainwise IP-100,2013-07-23 07:56:00,
2013-07-23 04:01:00,62.4,62.0,29.91,SSE,157,3.0,6.0,100,0.00,,,0.00,Rainwise IP-100,2013-07-23 08:01:00,
2013-07-23 04:06:00,62.3,62.0,29.92,South,180,3.0,5.0,100,0.00,,,0.00,Rainwise IP-100,2013-07-23 08:06:00,
2013-07-23 04:11:00,62.4,62.0,29.91,SSE,157,3.0,4.0,100,0.00,,,0.00,Rainwise IP-100,2013-07-23 08:11:00,
2013-07-23 04:16:00,62.5,62.0,29.91,SSE,157,2.0,4.0,100,0.00,,,0.00,Rainwise IP-100,2013-07-23 08:16:00,
2013-07-23 04:21:00,62.4,62.0,29.91,SSE,157,4.0,4.0,100,0.00,,,0.00,Rainwise IP-100,2013-07-23 08:21:00,
2013-07-23 04:26:00,62.3,62.0,29.90,SE,135,5.0,6.0,100,0.00,,,0.00,Rainwise IP-100,2013-07-23 08:26:00,
2013-07-23 04:31:00,62.3,62.0,29.90,SE,135,4.0,5.0,100,0.00,,,0.00,Rainwise IP-100,2013-07-23 08:31:00,
2013-07-23 04:36:00,62.3,62.0,29.90,SE,135,3.0,5.0,100,0.00,,,0.00,Rainwise IP-100,2013-07-23 08:36:00,
2013-07-23 04:41:00,62.2,62.0,29.90,SE,135,1.0,4.0,100,0.00,,,0.00,Rainwise IP-100,2013-07-23 08:41:00,
2013-07-23 04:46:00,62.3,62.0,29.90,SE,135,2.0,3.0,100,0.00,,,0.00,Rainwise IP-100,2013-07-23 08:46:00,
2013-07-23 04:51:00,62.4,62.0,29.90,SE,135,0.0,2.0,100,0.00,,,0.00,Rainwise IP-100,2013-07-23 08:51:00,
2013-07-23 04:56:00,62.4,62.0,29.90,SE,135,2.0,2.0,100,0.00,,,0.00,Rainwise IP-100,2013-07-23 08:56:00,
2013-07-23 05:01:00,62.4,62.0,29.90,SE,135,2.0,2.0,100,0.00,,,0.00,Rainwise IP-100,2013-07-23 09:01:00,
2013-07-23 05:06:00,62.4,62.0,29.89,SE,135,3.0,3.0,100,0.00,,,0.00,Rainwise IP-100,2013-07-23 09:06:00,
2013-07-23 05:11:00,62.4,62.0,29.89,SE,135,0.0,3.0,100,0.00,,,0.00,Rainwise IP-100,2013-07-23 09:11:00,
2013-07-23 05:16:00,62.3,62.0,29.90,SE,135,2.0,2.0,100,0.00,,,0.00,Rainwise IP-100,2013-07-23 09:16:00,
2013-07-23 05:21:00,62.3,62.0,29.90,SE,135,2.0,3.0,100,0.00,,,0.00,Rainwise IP-100,2013-07-23 09:21:00,
2013-07-23 05:26:00,62.3,62.0,29.89,SE,135,3.0,3.0,100,0.00,,,0.00,Rainwise IP-100,2013-07-23 09:26:00,
2013-07-23 05:31:00,62.4,62.0,29.89,SE,135,4.0,5.0,100,0.00,,,0.00,Rainwise IP-100,2013-07-23 09:31:00,
2013-07-23 05:36:00,62.3,62.0,29.89,SE,135,3.0,4.0,100,0.00,,,0.00,Rainwise IP-100,2013-07-23 09:36:00,
2013-07-23 05:41:00,62.0,62.0,29.89,SE,135,3.0,3.0,100,0.00,,,0.00,Rainwise IP-100,2013-07-23 09:41:00,
2013-07-23 05:46:00,61.7,61.0,29.89,SE,135,3.0,3.0,100,0.00,,,0.00,Rainwise IP-100,2013-07-23 09:46:00,
2013-07-23 05:51:00,61.6,61.0,29.88,ESE,112,4.0,4.0,100,0.00,,,0.00,Rainwise IP-100,2013-07-23 09:51:00,
2013-07-23 05:56:00,61.6,61.0,29.88,SE,135,4.0,4.0,100,0.00,,,0.00,Rainwise IP-100,2013-07-23 09:56:00,
2013-07-23 06:01:00,61.7,61.0,29.88,SE,135,2.0,4.0,100,0.00,,,0.00,Rainwise IP-100,2013-07-23 10:01:00,
2013-07-23 06:06:00,61.8,61.0,29.88,SE,135,3.0,3.0,100,0.00,,,0.00,Rainwise IP-100,2013-07-23 10:06:00,
2013-07-23 06:11:00,62.0,62.0,29.87,SE,135,3.0,3.0,100,0.00,,,0.00,Rainwise IP-100,2013-07-23 10:11:00,
2013-07-23 06:16:00,62.1,62.0,29.88,SE,135,2.0,4.0,100,0.00,,,0.00,Rainwise IP-100,2013-07-23 10:16:00,
2013-07-23 06:21:00,62.3,62.0,29.88,South,180,3.0,5.0,100,0.06,,,0.01,Rainwise IP-100,2013-07-23 10:21:00,
2013-07-23 06:26:00,62.2,62.0,29.87,SE,135,3.0,4.0,100,0.06,,,0.01,Rainwise IP-100,2013-07-23 10:26:00,
2013-07-23 06:31:00,61.9,62.0,29.87,SE,135,4.0,4.0,100,0.00,,,0.01,Rainwise IP-100,2013-07-23 10:31:00,
2013-07-23 06:36:00,61.7,61.0,29.87,SE,135,5.0,5.0,100,0.00,,,0.01,Rainwise IP-100,2013-07-23 10:36:00,
2013-07-23 06:41:00,61.9,62.0,29.86,SE,135,4.0,6.0,100,0.00,,,0.01,Rainwise IP-100,2013-07-23 10:41:00,
2013-07-23 06:46:00,62.1,62.0,29.86,SE,135,5.0,5.0,100,0.00,,,0.01,Rainwise IP-100,2013-07-23 10:46:00,
2013-07-23 06:51:00,62.1,62.0,29.86,SE,135,3.0,6.0,100,0.00,,,0.02,Rainwise IP-100,2013-07-23 10:51:00,
2013-07-23 06:56:00,62.2,62.0,29.86,SE,135,2.0,5.0,100,0.06,,,0.02,Rainwise IP-100,2013-07-23 10:56:00,
2013-07-23 07:01:00,62.2,62.0,29.85,SE,135,4.0,6.0,100,0.12,,,0.04,Rainwise IP-100,2013-07-23 11:01:00,
2013-07-23 07:06:00,62.2,62.0,29.85,SE,135,3.0,5.0,100,0.18,,,0.05,Rainwise IP-100,2013-07-23 11:06:00,
2013-07-23 07:11:00,62.3,62.0,29.85,South,180,6.0,6.0,100,0.18,,,0.06,Rainwise IP-100,2013-07-23 11:11:00,
2013-07-23 07:16:00,62.3,62.0,29.85,South,180,3.0,7.0,100,0.12,,,0.09,Rainwise IP-100,2013-07-23 11:16:00,
2013-07-23 07:21:00,62.3,62.0,29.85,SE,135,5.0,5.0,100,0.54,,,0.16,Rainwise IP-100,2013-07-23 11:21:00,
2013-07-23 07:26:00,62.3,62.0,29.85,SE,135,3.0,6.0,100,0.60,,,0.18,Rainwise IP-100,2013-07-23 11:26:00,
2013-07-23 07:31:00,62.2,62.0,29.85,SE,135,3.0,4.0,100,0.24,,,0.20,Rainwise IP-100,2013-07-23 11:31:00,
2013-07-23 07:36:00,62.1,62.0,29.85,SE,135,3.0,5.0,100,0.24,,,0.21,Rainwise IP-100,2013-07-23 11:36:00,
2013-07-23 07:41:00,62.1,62.0,29.84,South,180,3.0,6.0,100,0.18,,,0.23,Rainwise IP-100,2013-07-23 11:41:00,
2013-07-23 07:46:00,62.1,62.0,29.84,SSE,157,3.0,5.0,100,0.18,,,0.24,Rainwise IP-100,2013-07-23 11:46:00,
2013-07-23 07:51:00,62.1,62.0,29.84,SE,135,3.0,5.0,100,0.12,,,0.25,Rainwise IP-100,2013-07-23 11:51:00,
2013-07-23 07:56:00,61.9,62.0,29.84,SSE,157,2.0,5.0,100,0.12,,,0.27,Rainwise IP-100,2013-07-23 11:56:00,
2013-07-23 08:01:00,61.8,61.0,29.83,SSE,157,2.0,5.0,100,0.24,,,0.29,Rainwise IP-100,2013-07-23 12:01:00,
2013-07-23 08:06:00,61.7,61.0,29.83,South,180,2.0,4.0,100,0.24,,,0.30,Rainwise IP-100,2013-07-23 12:06:00,
2013-07-23 08:11:00,61.7,61.0,29.83,South,180,4.0,4.0,100,0.18,,,0.31,Rainwise IP-100,2013-07-23 12:11:00,
2013-07-23 08:16:00,61.7,61.0,29.83,South,180,4.0,4.0,100,0.06,,,0.31,Rainwise IP-100,2013-07-23 12:16:00,
2013-07-23 08:21:00,61.7,61.0,29.83,South,180,3.0,4.0,100,0.06,,,0.32,Rainwise IP-100,2013-07-23 12:21:00,
2013-07-23 08:26:00,61.7,61.0,29.83,South,180,2.0,4.0,100,0.06,,,0.32,Rainwise IP-100,2013-07-23 12:26:00,
2013-07-23 08:31:00,61.7,61.0,29.83,South,180,4.0,4.0,100,0.00,,,0.33,Rainwise IP-100,2013-07-23 12:31:00,
2013-07-23 08:36:00,61.8,61.0,29.82,SSE,157,2.0,4.0,100,0.06,,,0.33,Rainwise IP-100,2013-07-23 12:36:00,
2013-07-23 08:41:00,61.8,61.0,29.82,South,180,4.0,4.0,100,0.18,,,0.36,Rainwise IP-100,2013-07-23 12:41:00,
2013-07-23 08:46:00,61.7,61.0,29.82,SSE,157,3.0,5.0,100,0.42,,,0.42,Rainwise IP-100,2013-07-23 12:46:00,
2013-07-23 08:51:00,61.6,61.0,29.81,SE,135,4.0,4.0,100,0.84,,,0.50,Rainwise IP-100,2013-07-23 12:51:00,
2013-07-23 08:56:00,61.5,61.0,29.81,South,180,2.0,5.0,100,0.96,,,0.57,Rainwise IP-100,2013-07-23 12:56:00,
2013-07-23 09:01:00,61.4,61.0,29.81,South,180,3.0,3.0,100,0.90,,,0.65,Rainwise IP-100,2013-07-23 13:01:00,
2013-07-23 09:06:00,61.5,61.0,29.81,SE,135,3.0,5.0,100,0.78,,,0.69,Rainwise IP-100,2013-07-23 13:06:00,
2013-07-23 09:11:00,61.5,61.0,29.80,SE,135,6.0,6.0,100,0.48,,,0.74,Rainwise IP-100,2013-07-23 13:11:00,
2013-07-23 09:16:00,61.4,61.0,29.80,SSW,202,5.0,7.0,100,0.48,,,0.78,Rainwise IP-100,2013-07-23 13:16:00,
2013-07-23 09:21:00,61.4,61.0,29.80,SE,135,5.0,6.0,100,0.42,,,0.79,Rainwise IP-100,2013-07-23 13:21:00,
2013-07-23 09:26:00,61.5,61.0,29.79,SSE,157,4.0,7.0,100,0.18,,,0.80,Rainwise IP-100,2013-07-23 13:26:00,
2013-07-23 09:31:00,61.5,61.0,29.79,SSE,157,4.0,6.0,100,0.06,,,0.80,Rainwise IP-100,2013-07-23 13:31:00,
2013-07-23 09:36:00,61.5,61.0,29.79,South,180,3.0,6.0,100,0.00,,,0.80,Rainwise IP-100,2013-07-23 13:36:00,
2013-07-23 09:41:00,61.5,61.0,29.79,South,180,3.0,6.0,100,0.06,,,0.81,Rainwise IP-100,2013-07-23 13:41:00,
2013-07-23 09:46:00,61.6,61.0,29.78,ESE,112,5.0,5.0,100,0.12,,,0.82,Rainwise IP-100,2013-07-23 13:46:00,
2013-07-23 09:51:00,61.6,61.0,29.78,SE,135,2.0,7.0,100,0.24,,,0.85,Rainwise IP-100,2013-07-23 13:51:00,
2013-07-23 09:56:00,61.6,61.0,29.77,SE,135,4.0,6.0,100,0.18,,,0.85,Rainwise IP-100,2013-07-23 13:56:00,
2013-07-23 10:01:00,61.7,61.0,29.77,SE,135,2.0,4.0,100,0.00,,,0.85,Rainwise IP-100,2013-07-23 14:01:00,
2013-07-23 10:06:00,61.7,61.0,29.77,SSW,202,6.0,7.0,100,0.06,,,0.86,Rainwise IP-100,2013-07-23 14:06:00,
2013-07-23 10:11:00,61.7,61.0,29.77,SE,135,4.0,6.0,100,0.06,,,0.86,Rainwise IP-100,2013-07-23 14:11:00,
2013-07-23 10:16:00,61.8,61.0,29.77,South,180,3.0,5.0,100,0.00,,,0.87,Rainwise IP-100,2013-07-23 14:16:00,
2013-07-23 10:21:00,61.8,61.0,29.77,SSE,157,4.0,6.0,100,0.06,,,0.87,Rainwise IP-100,2013-07-23 14:21:00,
2013-07-23 10:26:00,61.9,62.0,29.77,SSE,157,6.0,6.0,100,0.06,,,0.87,Rainwise IP-100,2013-07-23 14:26:00,
2013-07-23 10:31:00,61.9,62.0,29.76,SSE,157,5.0,6.0,100,0.06,,,0.88,Rainwise IP-100,2013-07-23 14:31:00,
2013-07-23 10:36:00,61.9,62.0,29.77,SSE,157,3.0,6.0,100,0.06,,,0.88,Rainwise IP-100,2013-07-23 14:36:00,
2013-07-23 10:41:00,62.0,62.0,29.76,SE,135,0.0,5.0,100,0.06,,,0.89,Rainwise IP-100,2013-07-23 14:41:00,
2013-07-23 10:46:00,62.1,62.0,29.76,South,180,4.0,5.0,100,0.18,,,0.91,Rainwise IP-100,2013-07-23 14:46:00,
2013-07-23 10:51:00,62.0,62.0,29.75,SE,135,3.0,5.0,100,0.24,,,0.94,Rainwise IP-100,2013-07-23 14:51:00,
2013-07-23 10:56:00,62.0,62.0,29.74,SSE,157,1.0,4.0,100,0.30,,,0.99,Rainwise IP-100,2013-07-23 14:56:00,
2013-07-23 11:01:00,62.0,62.0,29.75,SSW,202,2.0,7.0,100,0.84,,,1.08,Rainwise IP-100,2013-07-23 15:01:00,
2013-07-23 11:06:00,62.1,62.0,29.75,SE,135,0.0,5.0,100,0.84,,,1.10,Rainwise IP-100,2013-07-23 15:06:00,
2013-07-23 11:11:00,62.2,62.0,29.74,South,180,3.0,3.0,100,0.30,,,1.12,Rainwise IP-100,2013-07-23 15:11:00,
2013-07-23 11:16:00,62.3,62.0,29.74,South,180,2.0,3.0,100,0.24,,,1.14,Rainwise IP-100,2013-07-23 15:16:00,
2013-07-23 11:21:00,62.5,62.0,29.74,South,180,3.0,3.0,100,0.24,,,1.16,Rainwise IP-100,2013-07-23 15:21:00,
2013-07-23 11:26:00,62.6,62.0,29.73,SSE,157,3.0,4.0,100,0.18,,,1.17,Rainwise IP-100,2013-07-23 15:26:00,
2013-07-23 11:31:00,62.8,62.0,29.73,South,180,2.0,4.0,100,0.06,,,1.17,Rainwise IP-100,2013-07-23 15:31:00,
2013-07-23 11:36:00,62.8,62.0,29.73,SSE,157,3.0,4.0,100,0.00,,,1.17,Rainwise IP-100,2013-07-23 15:36:00,
2013-07-23 11:41:00,62.9,63.0,29.73,SSE,157,2.0,4.0,100,0.00,,,1.17,Rainwise IP-100,2013-07-23 15:41:00,
2013-07-23 11:46:00,63.0,63.0,29.73,South,180,1.0,4.0,100,0.00,,,1.17,Rainwise IP-100,2013-07-23 15:46:00,
2013-07-23 11:51:00,63.1,63.0,29.72,SE,135,4.0,6.0,100,0.00,,,1.17,Rainwise IP-100,2013-07-23 15:51:00,
2013-07-23 11:56:00,63.0,63.0,29.72,SE,135,4.0,6.0,100,0.00,,,1.17,Rainwise IP-100,2013-07-23 15:56:00,
2013-07-23 12:01:00,62.9,63.0,29.72,SSE,157,1.0,4.0,100,0.00,,,1.17,Rainwise IP-100,2013-07-23 16:01:00,
2013-07-23 12:06:00,63.1,63.0,29.72,SSE,157,2.0,3.0,100,0.00,,,1.17,Rainwise IP-100,2013-07-23 16:06:00,
2013-07-23 12:11:00,63.2,63.0,29.71,SSE,157,1.0,4.0,100,0.00,,,1.17,Rainwise IP-100,2013-07-23 16:11:00,
2013-07-23 12:16:00,63.1,63.0,29.71,South,180,5.0,7.0,100,0.12,,,1.19,Rainwise IP-100,2013-07-23 16:16:00,
2013-07-23 12:21:00,63.1,63.0,29.71,SE,135,4.0,6.0,100,0.12,,,1.19,Rainwise IP-100,2013-07-23 16:21:00,
2013-07-23 12:26:00,63.0,63.0,29.70,SE,135,3.0,6.0,100,0.06,,,1.20,Rainwise IP-100,2013-07-23 16:26:00,
2013-07-23 12:31:00,63.0,63.0,29.70,SE,135,2.0,7.0,100,0.06,,,1.20,Rainwise IP-100,2013-07-23 16:31:00,
2013-07-23 12:36:00,63.1,63.0,29.70,SE,135,5.0,5.0,100,0.00,,,1.20,Rainwise IP-100,2013-07-23 16:36:00,
2013-07-23 12:41:00,63.3,63.0,29.70,SE,135,4.0,5.0,100,0.00,,,1.20,Rainwise IP-100,2013-07-23 16:41:00,
2013-07-23 12:46:00,63.3,63.0,29.70,SE,135,6.0,6.0,100,0.06,,,1.21,Rainwise IP-100,2013-07-23 16:46:00,
2013-07-23 12:51:00,63.3,63.0,29.70,SSE,157,2.0,6.0,100,0.06,,,1.21,Rainwise IP-100,2013-07-23 16:51:00,
2013-07-23 12:56:00,63.3,63.0,29.69,SE,135,7.0,7.0,100,0.00,,,1.21,Rainwise IP-100,2013-07-23 16:56:00,
2013-07-23 13:01:00,63.2,63.0,29.69,SE,135,6.0,7.0,100,0.00,,,1.22,Rainwise IP-100,2013-07-23 17:01:00,
2013-07-23 13:06:00,63.1,63.0,29.68,SE,135,5.0,7.0,100,0.06,,,1.22,Rainwise IP-100,2013-07-23 17:06:00,
2013-07-23 13:11:00,63.1,63.0,29.68,SE,135,5.0,7.0,100,0.12,,,1.23,Rainwise IP-100,2013-07-23 17:11:00,
2013-07-23 13:16:00,63.2,63.0,29.68,SSE,157,3.0,5.0,100,0.06,,,1.23,Rainwise IP-100,2013-07-23 17:16:00,
2013-07-23 13:21:00,63.2,63.0,29.67,SSE,157,4.0,6.0,100,0.00,,,1.23,Rainwise IP-100,2013-07-23 17:21:00,
2013-07-23 13:26:00,63.2,63.0,29.67,SSE,157,4.0,5.0,100,0.00,,,1.23,Rainwise IP-100,2013-07-23 17:26:00,
2013-07-23 13:31:00,63.2,63.0,29.67,SE,135,3.0,6.0,100,0.00,,,1.23,Rainwise IP-100,2013-07-23 17:31:00,
2013-07-23 13:36:00,63.1,63.0,29.66,SE,135,4.0,6.0,100,0.00,,,1.23,Rainwise IP-100,2013-07-23 17:36:00,
2013-07-23 13:41:00,63.2,63.0,29.67,SE,135,4.0,7.0,100,0.00,,,1.23,Rainwise IP-100,2013-07-23 17:41:00,
2013-07-23 13:46:00,63.2,63.0,29.66,SE,135,6.0,7.0,100,0.00,,,1.23,Rainwise IP-100,2013-07-23 17:46:00,
2013-07-23 13:51:00,63.3,63.0,29.65,SE,135,4.0,6.0,100,0.00,,,1.23,Rainwise IP-100,2013-07-23 17:51:00,
2013-07-23 13:56:00,63.5,63.0,29.65,SSE,157,5.0,8.0,100,0.00,,,1.23,Rainwise IP-100,2013-07-23 17:56:00,
2013-07-23 14:01:00,63.5,63.0,29.65,SE,135,4.0,6.0,100,0.00,,,1.23,Rainwise IP-100,2013-07-23 18:01:00,
2013-07-23 14:06:00,63.4,63.0,29.65,SE,135,4.0,7.0,100,0.00,,,1.23,Rainwise IP-100,2013-07-23 18:06:00,
2013-07-23 14:11:00,63.3,63.0,29.65,SE,135,2.0,8.0,100,0.00,,,1.23,Rainwise IP-100,2013-07-23 18:11:00,
2013-07-23 14:16:00,63.1,63.0,29.64,SE,135,4.0,6.0,100,0.00,,,1.23,Rainwise IP-100,2013-07-23 18:16:00,
2013-07-23 14:21:00,62.7,62.0,29.64,SSE,157,5.0,7.0,100,0.00,,,1.23,Rainwise IP-100,2013-07-23 18:21:00,
2013-07-23 14:26:00,62.6,62.0,29.64,SSE,157,6.0,9.0,100,0.00,,,1.23,Rainwise IP-100,2013-07-23 18:26:00,
2013-07-23 14:31:00,62.8,62.0,29.64,SE,135,4.0,8.0,100,0.00,,,1.23,Rainwise IP-100,2013-07-23 18:31:00,
2013-07-23 14:36:00,63.1,63.0,29.64,SSE,157,5.0,9.0,100,0.00,,,1.23,Rainwise IP-100,2013-07-23 18:36:00,
2013-07-23 14:37:00,63.3,63.0,29.63,SE,135,6.0,9.0,100,0.00,,,1.23,Rainwise IP-100,2013-07-23 18:37:00,
2013-07-23 14:42:00,63.4,63.0,29.64,SE,135,7.0,0.0,100,0.00,,,1.23,Rainwise IP-100,2013-07-23 18:42:00,
2013-07-23 14:47:00,63.3,63.0,29.63,South,180,4.0,9.0,100,0.00,,,1.23,Rainwise IP-100,2013-07-23 18:47:00,
2013-07-23 14:52:00,63.3,63.0,29.64,SE,135,4.0,7.0,100,0.00,,,1.23,Rainwise IP-100,2013-07-23 18:52:00,
2013-07-23 14:57:00,63.4,63.0,29.63,ESE,112,4.0,7.0,100,0.00,,,1.23,Rainwise IP-100,2013-07-23 18:57:00,
2013-07-23 15:02:00,63.3,63.0,29.63,ESE,112,8.0,9.0,100,0.00,,,1.23,Rainwise IP-100,2013-07-23 19:02:00,
2013-07-23 15:07:00,62.8,62.0,29.63,ESE,112,7.0,9.0,100,0.00,,,1.23,Rainwise IP-100,2013-07-23 19:07:00,
2013-07-23 15:12:00,62.6,62.0,29.64,ESE,112,6.0,0.0,100,0.00,,,1.23,Rainwise IP-100,2013-07-23 19:12:00,
2013-07-23 15:17:00,62.9,63.0,29.63,ESE,112,7.0,7.0,100,0.00,,,1.23,Rainwise IP-100,2013-07-23 19:17:00,
2013-07-23 15:22:00,63.0,63.0,29.63,SE,135,6.0,6.0,100,0.00,,,1.23,Rainwise IP-100,2013-07-23 19:22:00,
2013-07-23 15:27:00,62.9,63.0,29.62,SE,135,9.0,9.0,100,0.00,,,1.23,Rainwise IP-100,2013-07-23 19:27:00,
2013-07-23 15:32:00,62.6,62.0,29.62,SE,135,6.0,6.0,100,0.00,,,1.23,Rainwise IP-100,2013-07-23 19:32:00,
2013-07-23 15:37:00,62.4,62.0,29.61,SE,135,8.0,8.0,100,0.00,,,1.23,Rainwise IP-100,2013-07-23 19:37:00,
2013-07-23 15:42:00,62.3,62.0,29.61,SSE,157,9.0,9.0,100,0.00,,,1.23,Rainwise IP-100,2013-07-23 19:42:00,
2013-07-23 15:47:00,62.5,62.0,29.61,East,90,7.0,9.0,100,0.00,,,1.23,Rainwise IP-100,2013-07-23 19:47:00,
2013-07-23 15:52:00,62.9,63.0,29.61,SE,135,5.0,0.0,100,0.00,,,1.23,Rainwise IP-100,2013-07-23 19:52:00,
2013-07-23 15:56:00,63.2,63.0,29.60,SSE,157,0.0,9.0,100,0.00,,,1.23,Rainwise IP-100,2013-07-23 19:56:00,
2013-07-23 16:01:00,63.5,63.0,29.61,South,180,5.0,5.0,100,0.00,,,1.23,Rainwise IP-100,2013-07-23 20:01:00,
2013-07-23 16:06:00,63.6,63.0,29.60,SSE,157,7.0,9.0,100,0.00,,,1.23,Rainwise IP-100,2013-07-23 20:06:00,
2013-07-23 16:11:00,63.7,63.0,29.60,ESE,112,8.0,8.0,100,0.00,,,1.23,Rainwise IP-100,2013-07-23 20:11:00,
2013-07-23 16:16:00,63.6,63.0,29.60,SE,135,6.0,9.0,100,0.00,,,1.23,Rainwise IP-100,2013-07-23 20:16:00,
2013-07-23 16:21:00,63.3,63.0,29.60,SE,135,5.0,9.0,100,0.00,,,1.23,Rainwise IP-100,2013-07-23 20:21:00,
2013-07-23 16:26:00,63.0,63.0,29.60,ESE,112,6.0,6.0,100,0.00,,,1.23,Rainwise IP-100,2013-07-23 20:26:00,
2013-07-23 16:31:00,62.8,62.0,29.60,SE,135,5.0,5.0,100,0.00,,,1.23,Rainwise IP-100,2013-07-23 20:31:00,
2013-07-23 16:36:00,62.7,62.0,29.60,SE,135,7.0,0.0,100,0.00,,,1.23,Rainwise IP-100,2013-07-23 20:36:00,
2013-07-23 16:41:00,62.9,63.0,29.59,SE,135,6.0,6.0,100,0.00,,,1.23,Rainwise IP-100,2013-07-23 20:41:00,
2013-07-23 16:46:00,62.9,63.0,29.59,SSE,157,5.0,7.0,100,0.00,,,1.23,Rainwise IP-100,2013-07-23 20:46:00,
2013-07-23 16:51:00,63.2,63.0,29.59,ESE,112,4.0,6.0,100,0.00,,,1.23,Rainwise IP-100,2013-07-23 20:51:00,
2013-07-23 16:56:00,63.3,63.0,29.59,SSE,157,4.0,8.0,100,0.00,,,1.23,Rainwise IP-100,2013-07-23 20:56:00,
2013-07-23 17:01:00,63.2,63.0,29.59,SSE,157,5.0,8.0,100,0.00,,,1.23,Rainwise IP-100,2013-07-23 21:01:00,
2013-07-23 17:06:00,63.3,63.0,29.59,SSE,157,3.0,7.0,100,0.00,,,1.23,Rainwise IP-100,2013-07-23 21:06:00,
2013-07-23 17:11:00,63.2,63.0,29.59,SE,135,0.0,5.0,100,0.00,,,1.23,Rainwise IP-100,2013-07-23 21:11:00,
2013-07-23 17:16:00,63.3,63.0,29.59,SE,135,1.0,4.0,100,0.00,,,1.23,Rainwise IP-100,2013-07-23 21:16:00,
2013-07-23 17:21:00,63.7,63.0,29.59,South,180,0.0,2.0,100,0.00,,,1.23,Rainwise IP-100,2013-07-23 21:21:00,
2013-07-23 17:26:00,64.0,64.0,29.59,ESE,112,4.0,4.0,100,0.00,,,1.23,Rainwise IP-100,2013-07-23 21:26:00,
2013-07-23 17:31:00,63.6,63.0,29.59,ESE,112,3.0,4.0,100,0.00,,,1.23,Rainwise IP-100,2013-07-23 21:31:00,
2013-07-23 17:36:00,63.5,63.0,29.58,SE,135,3.0,3.0,100,0.00,,,1.23,Rainwise IP-100,2013-07-23 21:36:00,
2013-07-23 17:41:00,63.7,63.0,29.58,SE,135,3.0,3.0,100,0.00,,,1.23,Rainwise IP-100,2013-07-23 21:41:00,
2013-07-23 17:46:00,64.1,64.0,29.59,SSE,157,5.0,5.0,100,0.00,,,1.23,Rainwise IP-100,2013-07-23 21:46:00,
2013-07-23 17:51:00,64.3,64.0,29.58,SSE,157,2.0,5.0,100,0.00,,,1.23,Rainwise IP-100,2013-07-23 21:51:00,
2013-07-23 17:56:00,64.2,64.0,29.58,SSE,157,1.0,3.0,100,0.00,,,1.23,Rainwise IP-100,2013-07-23 21:56:00,
2013-07-23 18:01:00,64.0,64.0,29.58,SE,135,3.0,4.0,100,0.00,,,1.23,Rainwise IP-100,2013-07-23 22:01:00,
2013-07-23 18:06:00,63.8,63.0,29.58,SE,135,0.0,4.0,100,0.00,,,1.23,Rainwise IP-100,2013-07-23 22:06:00,
2013-07-23 18:11:00,64.1,64.0,29.58,SSE,157,2.0,3.0,100,0.00,,,1.23,Rainwise IP-100,2013-07-23 22:11:00,
2013-07-23 18:16:00,64.3,64.0,29.58,SSE,157,0.0,2.0,100,0.00,,,1.23,Rainwise IP-100,2013-07-23 22:16:00,
2013-07-23 18:21:00,63.9,64.0,29.58,SSE,157,0.0,0.0,100,0.00,,,1.23,Rainwise IP-100,2013-07-23 22:21:00,
2013-07-23 18:26:00,63.7,63.0,29.58,SSE,157,0.0,0.0,100,0.00,,,1.23,Rainwise IP-100,2013-07-23 22:26:00,
2013-07-23 18:31:00,63.5,63.0,29.58,SSE,157,0.0,1.0,100,0.00,,,1.23,Rainwise IP-100,2013-07-23 22:31:00,
2013-07-23 18:36:00,63.4,63.0,29.58,SSE,157,0.0,1.0,100,0.00,,,1.23,Rainwise IP-100,2013-07-23 22:36:00,
2013-07-23 18:41:00,63.7,63.0,29.57,SSE,157,0.0,0.0,100,0.00,,,1.23,Rainwise IP-100,2013-07-23 22:41:00,
2013-07-23 18:46:00,63.8,63.0,29.57,SSE,157,0.0,1.0,100,0.00,,,1.23,Rainwise IP-100,2013-07-23 22:46:00,
2013-07-23 18:51:00,63.6,63.0,29.57,SE,135,3.0,3.0,100,0.00,,,1.23,Rainwise IP-100,2013-07-23 22:51:00,
2013-07-23 18:56:00,63.5,63.0,29.57,SE,135,2.0,4.0,100,0.00,,,1.23,Rainwise IP-100,2013-07-23 22:56:00,
2013-07-23 19:01:00,63.4,63.0,29.57,SE,135,1.0,2.0,100,0.00,,,1.23,Rainwise IP-100,2013-07-23 23:01:00,
2013-07-23 19:06:00,63.3,63.0,29.58,SE,135,0.0,1.0,100,0.00,,,1.23,Rainwise IP-100,2013-07-23 23:06:00,
2013-07-23 19:11:00,63.1,63.0,29.57,SE,135,0.0,1.0,100,0.00,,,1.23,Rainwise IP-100,2013-07-23 23:11:00,
2013-07-23 19:16:00,62.9,63.0,29.57,SE,135,3.0,3.0,100,0.00,,,1.23,Rainwise IP-100,2013-07-23 23:16:00,
2013-07-23 19:21:00,62.8,62.0,29.57,SE,135,4.0,5.0,100,0.00,,,1.23,Rainwise IP-100,2013-07-23 23:21:00,
2013-07-23 19:26:00,62.9,63.0,29.57,SSE,157,1.0,4.0,100,0.00,,,1.23,Rainwise IP-100,2013-07-23 23:26:00,
2013-07-23 19:31:00,63.0,63.0,29.57,South,180,2.0,4.0,100,0.00,,,1.23,Rainwise IP-100,2013-07-23 23:31:00,
2013-07-23 19:36:00,63.0,63.0,29.57,South,180,0.0,3.0,100,0.00,,,1.23,Rainwise IP-100,2013-07-23 23:36:00,
2013-07-23 19:41:00,63.3,63.0,29.57,South,180,0.0,0.0,100,0.00,,,1.23,Rainwise IP-100,2013-07-23 23:41:00,
2013-07-23 19:46:00,63.5,63.0,29.57,South,180,0.0,0.0,100,0.00,,,1.23,Rainwise IP-100,2013-07-23 23:46:00,
2013-07-23 19:51:00,63.6,63.0,29.57,South,180,0.0,0.0,100,0.00,,,1.23,Rainwise IP-100,2013-07-23 23:51:00,
2013-07-23 19:56:00,63.6,63.0,29.57,South,180,0.0,0.0,100,0.00,,,1.23,Rainwise IP-100,2013-07-23 23:56:00,
2013-07-23 20:01:00,63.7,63.0,29.57,South,180,0.0,0.0,100,0.00,,,1.23,Rainwise IP-100,2013-07-24 00:01:00,
2013-07-23 20:06:00,64.0,64.0,29.57,South,180,2.0,2.0,100,0.06,,,1.24,Rainwise IP-100,2013-07-24 00:06:00,
2013-07-23 20:11:00,64.3,64.0,29.57,South,180,1.0,2.0,100,0.06,,,1.24,Rainwise IP-100,2013-07-24 00:11:00,
2013-07-23 20:16:00,64.3,64.0,29.57,SE,135,4.0,5.0,100,0.00,,,1.24,Rainwise IP-100,2013-07-24 00:16:00,
2013-07-23 20:21:00,63.8,63.0,29.57,SE,135,2.0,6.0,100,0.00,,,1.24,Rainwise IP-100,2013-07-24 00:21:00,
2013-07-23 20:26:00,63.5,63.0,29.57,SE,135,0.0,3.0,100,0.00,,,1.24,Rainwise IP-100,2013-07-24 00:26:00,
2013-07-23 20:31:00,63.9,64.0,29.57,SE,135,0.0,1.0,100,0.00,,,1.24,Rainwise IP-100,2013-07-24 00:31:00,
2013-07-23 20:36:00,64.5,64.0,29.57,SE,135,1.0,2.0,100,0.00,,,1.24,Rainwise IP-100,2013-07-24 00:36:00,
2013-07-23 20:41:00,64.7,64.0,29.57,NW,315,0.0,1.0,100,0.00,,,1.24,Rainwise IP-100,2013-07-24 00:41:00,
2013-07-23 20:46:00,64.3,64.0,29.57,East,90,0.0,2.0,100,0.00,,,1.24,Rainwise IP-100,2013-07-24 00:46:00,
2013-07-23 20:51:00,63.7,63.0,29.57,NNE,22,0.0,1.0,100,0.06,,,1.25,Rainwise IP-100,2013-07-24 00:51:00,
2013-07-23 20:56:00,63.6,63.0,29.57,North,0,0.0,0.0,100,0.06,,,1.25,Rainwise IP-100,2013-07-24 00:56:00,
2013-07-23 21:01:00,63.5,63.0,29.57,North,0,0.0,0.0,100,0.00,,,1.25,Rainwise IP-100,2013-07-24 01:01:00,
2013-07-23 21:06:00,63.2,63.0,29.57,North,0,0.0,0.0,100,0.00,,,1.25,Rainwise IP-100,2013-07-24 01:06:00,
2013-07-23 21:11:00,63.4,63.0,29.57,North,0,0.0,0.0,100,0.00,,,1.25,Rainwise IP-100,2013-07-24 01:11:00,
2013-07-23 21:16:00,64.2,64.0,29.57,East,90,0.0,1.0,100,0.00,,,1.25,Rainwise IP-100,2013-07-24 01:16:00,
2013-07-23 21:21:00,64.5,64.0,29.57,SE,135,2.0,3.0,100,0.00,,,1.25,Rainwise IP-100,2013-07-24 01:21:00,
2013-07-23 21:26:00,64.8,64.0,29.57,SE,135,0.0,3.0,100,0.00,,,1.25,Rainwise IP-100,2013-07-24 01:26:00,
2013-07-23 21:31:00,65.1,65.0,29.57,SE,135,0.0,0.0,100,0.00,,,1.25,Rainwise IP-100,2013-07-24 01:31:00,
2013-07-23 21:36:00,63.8,63.0,29.56,SE,135,3.0,6.0,100,0.00,,,1.25,Rainwise IP-100,2013-07-24 01:36:00,
2013-07-23 21:41:00,62.8,62.0,29.55,SE,135,3.0,6.0,100,0.00,,,1.25,Rainwise IP-100,2013-07-24 01:41:00,
2013-07-23 21:46:00,63.3,63.0,29.56,South,180,4.0,5.0,100,0.00,,,1.25,Rainwise IP-100,2013-07-24 01:46:00,
2013-07-23 21:51:00,64.0,64.0,29.56,SSW,202,0.0,4.0,100,0.00,,,1.25,Rainwise IP-100,2013-07-24 01:51:00,
2013-07-23 21:56:00,64.1,64.0,29.56,South,180,0.0,1.0,100,0.00,,,1.25,Rainwise IP-100,2013-07-24 01:56:00,
2013-07-23 22:01:00,63.7,63.0,29.57,SE,135,5.0,7.0,100,0.00,,,1.25,Rainwise IP-100,2013-07-24 02:01:00,
2013-07-23 22:06:00,63.6,63.0,29.57,SSE,157,3.0,7.0,100,0.00,,,1.25,Rainwise IP-100,2013-07-24 02:06:00,
2013-07-23 22:11:00,63.8,63.0,29.57,SSE,157,0.0,4.0,100,0.00,,,1.25,Rainwise IP-100,2013-07-24 02:11:00,
2013-07-23 22:16:00,64.0,64.0,29.58,SSE,157,0.0,0.0,100,0.00,,,1.25,Rainwise IP-100,2013-07-24 02:16:00,
2013-07-23 22:21:00,63.8,63.0,29.58,NNW,337,2.0,7.0,100,0.00,,,1.25,Rainwise IP-100,2013-07-24 02:21:00,
2013-07-23 22:26:00,63.3,63.0,29.58,NNW,337,0.0,4.0,100,0.00,,,1.25,Rainwise IP-100,2013-07-24 02:26:00,
2013-07-23 22:31:00,63.1,63.0,29.58,NNW,337,0.0,1.0,100,0.00,,,1.25,Rainwise IP-100,2013-07-24 02:31:00,
2013-07-23 22:36:00,63.1,63.0,29.58,NNW,337,1.0,1.0,100,0.00,,,1.25,Rainwise IP-100,2013-07-24 02:36:00,
2013-07-23 22:41:00,63.4,63.0,29.57,NNW,337,0.0,3.0,100,0.00,,,1.25,Rainwise IP-100,2013-07-24 02:41:00,
2013-07-23 22:46:00,63.6,63.0,29.57,NNW,337,3.0,3.0,100,0.00,,,1.25,Rainwise IP-100,2013-07-24 02:46:00,
2013-07-23 22:51:00,63.8,63.0,29.57,NW,315,3.0,3.0,100,0.00,,,1.25,Rainwise IP-100,2013-07-24 02:51:00,
2013-07-23 22:56:00,64.0,64.0,29.57,NW,315,3.0,4.0,100,0.00,,,1.25,Rainwise IP-100,2013-07-24 02:56:00,
2013-07-23 23:01:00,64.3,64.0,29.58,WNW,292,4.0,5.0,100,0.00,,,1.25,Rainwise IP-100,2013-07-24 03:01:00,
2013-07-23 23:06:00,64.5,64.0,29.57,WNW,292,3.0,4.0,100,0.00,,,1.25,Rainwise IP-100,2013-07-24 03:06:00,
2013-07-23 23:11:00,64.8,64.0,29.57,WNW,292,3.0,4.0,100,0.00,,,1.25,Rainwise IP-100,2013-07-24 03:11:00,
2013-07-23 23:16:00,65.0,65.0,29.58,WNW,292,1.0,3.0,100,0.00,,,1.25,Rainwise IP-100,2013-07-24 03:16:00,
2013-07-23 23:21:00,65.2,65.0,29.57,WNW,292,0.0,1.0,100,0.00,,,1.25,Rainwise IP-100,2013-07-24 03:21:00,
2013-07-23 23:26:00,65.5,65.0,29.57,WNW,292,2.0,2.0,100,0.00,,,1.25,Rainwise IP-100,2013-07-24 03:26:00,
2013-07-23 23:31:00,65.8,65.0,29.57,WNW,292,0.0,2.0,100,0.00,,,1.25,Rainwise IP-100,2013-07-24 03:31:00,
2013-07-23 23:36:00,65.9,66.0,29.58,WNW,292,0.0,1.0,100,0.00,,,1.25,Rainwise IP-100,2013-07-24 03:36:00,
2013-07-23 23:41:00,65.5,65.0,29.57,WNW,292,2.0,2.0,100,0.00,,,1.25,Rainwise IP-100,2013-07-24 03:41:00,
2013-07-23 23:46:00,65.5,65.0,29.57,WNW,292,2.0,2.0,100,0.00,,,1.25,Rainwise IP-100,2013-07-24 03:46:00,
2013-07-23 23:51:00,65.9,66.0,29.57,WNW,292,3.0,3.0,100,0.00,,,1.25,Rainwise IP-100,2013-07-24 03:51:00,
2013-07-23 23:56:00,66.3,66.0,29.58,WNW,292,3.0,4.0,100,0.00,,,1.25,Rainwise IP-100,2013-07-24 03:56:00,